This is the latest recevied weather packets stored in our database for station/object N5TDX. If no packets are shown the sender has not sent any weather packets the latest 10 day(s).
| Time | Temp. | Humidity | Pressure | Rain* | Wind** | Luminosity | Snow |
|---|---|---|---|---|---|---|---|
| 1787855313 | 38.33° C | 36% | 1012.4 hPa | 0 mm | - | - | - |
| 1787855009 | 38.33° C | 37% | 1012.3 hPa | 0 mm | - | - | - |
| 1787854704 | 37.78° C | 38% | 1012.7 hPa | 0 mm | - | - | - |
| 1787854404 | 37.78° C | 38% | 1012.7 hPa | 0 mm | - | - | - |
| 1787854104 | 37.78° C | 38% | 1013 hPa | 0 mm | - | - | - |
| 1787853804 | 37.78° C | 39% | 1012.7 hPa | 0 mm | - | - | - |
| 1787853502 | 37.78° C | 39% | 1013.2 hPa | 0 mm | - | - | - |
| 1787853197 | 36.67° C | 40% | 1013.2 hPa | 0 mm | - | - | - |
| 1787852897 | 36.67° C | 41% | 1013.2 hPa | 0 mm | - | - | - |
| 1787852591 | 36.67° C | 41% | 1013.3 hPa | 0 mm | - | - | - |
| 1787852291 | 37.22° C | 40% | 1013.4 hPa | 0 mm | - | - | - |
| 1787851990 | 36.67° C | 40% | 1012.9 hPa | 0 mm | - | - | - |
| 1787851689 | 36.67° C | 41% | 1013.2 hPa | 0 mm | - | - | - |
| 1787851384 | 36.67° C | 40% | 1013.2 hPa | 0 mm | - | - | - |
| 1787851080 | 36.67° C | 39% | 1013.3 hPa | 0 mm | - | - | - |
| 1787850775 | 36.11° C | 41% | 1013.3 hPa | 0 mm | - | - | - |
| 1787850470 | 36.11° C | 40% | 1013.2 hPa | 0 mm | - | - | - |
| 1787850165 | 36.67° C | 40% | 1013.4 hPa | 0 mm | - | - | - |
| 1787849860 | 36.67° C | 40% | 1013.4 hPa | 0 mm | - | - | - |
| 1787849555 | 36.67° C | 42% | 1013.6 hPa | 0 mm | - | - | - |
| 1787849254 | 36.11° C | 45% | 1013.5 hPa | 0 mm | - | - | - |
| 1787848954 | 36.67° C | 44% | 1013.4 hPa | 0 mm | - | - | - |
| 1787848648 | 36.67° C | 45% | 1013.4 hPa | 0 mm | - | - | - |
| 1787848344 | 36.11° C | 46% | 1013.4 hPa | 0 mm | - | - | - |
| 1787848044 | 36.11° C | 46% | 1013.6 hPa | 0 mm | - | - | - |
* Rain latest hour (hover to see other rain measurements)
** Current wind speed in m/s (hover to see current wind gust speed)